Hana Airport


Codes: PHHN/HNM
Name: Hana Airport
City: Hana
Country: United States
Elevation: 78 ft.
Wikipedia:

Photos at Hana Airport


   Photos courtesy of SpottingLog. You can add your own sightings and photos by signing up for a free trial today.



No photos found.

Weather at Hana Airport


Time (UTC)DescriptionTempratureWindCloud coverageVisibilityPressureHumidity
15-Apr-2024 15:00Light Rain21°C7 mph, SW100%10000m1012hPa86%
15-Apr-2024 18:00Light Rain22°C9 mph, SW100%7933m1012hPa86%
15-Apr-2024 21:00Light Rain24°C9 mph, SW93%10000m1013hPa78%
16-Apr-2024 00:00Light Rain25°C7 mph, NW78%10000m1011hPa75%
16-Apr-2024 03:00Light Rain25°C4 mph, NW33%10000m1012hPa74%
16-Apr-2024 06:00Light Rain24°C2 mph, NW29%10000m1013hPa78%
16-Apr-2024 09:00Light Rain23°C4 mph, N14%10000m1014hPa78%
16-Apr-2024 12:00Light Rain23°C4 mph, N17%10000m1013hPa77%
16-Apr-2024 15:00Few Clouds22°C4 mph, NW18%10000m1014hPa73%
16-Apr-2024 18:00Few Clouds23°C4 mph, NW16%10000m1015hPa66%
16-Apr-2024 21:00Clear Sky24°C4 mph, N0%10000m1015hPa62%
17-Apr-2024 00:00Clear Sky24°C4 mph, N3%10000m1014hPa65%
17-Apr-2024 03:00Scattered Clouds23°C7 mph, N35%10000m1014hPa71%
17-Apr-2024 06:00Broken Clouds23°C9 mph, N55%10000m1016hPa79%
17-Apr-2024 09:00Broken Clouds22°C9 mph, N70%10000m1017hPa80%
17-Apr-2024 12:00Broken Clouds22°C7 mph, N54%10000m1016hPa78%
17-Apr-2024 15:00Few Clouds21°C9 mph, N16%10000m1016hPa79%
17-Apr-2024 18:00Few Clouds22°C7 mph, N19%10000m1018hPa73%
17-Apr-2024 21:00Clear Sky23°C9 mph, NE7%10000m1018hPa70%
18-Apr-2024 00:00Few Clouds23°C9 mph, NE12%10000m1017hPa72%
18-Apr-2024 03:00Few Clouds23°C11 mph, N20%10000m1016hPa75%
18-Apr-2024 06:00Light Rain22°C11 mph, NE32%10000m1018hPa82%
18-Apr-2024 09:00Light Rain22°C11 mph, NE80%10000m1019hPa83%
18-Apr-2024 12:00Light Rain22°C9 mph, NE80%10000m1018hPa82%
18-Apr-2024 15:00Light Rain22°C9 mph, NE90%10000m1018hPa82%
18-Apr-2024 18:00Light Rain22°C11 mph, NE73%10000m1020hPa80%
18-Apr-2024 21:00Light Rain23°C11 mph, NE67%10000m1020hPa80%
19-Apr-2024 00:00Light Rain22°C13 mph, NE72%7330m1018hPa83%
19-Apr-2024 03:00Light Rain22°C13 mph, NE92%6898m1018hPa82%
19-Apr-2024 06:00Light Rain22°C13 mph, NE95%9004m1020hPa81%
19-Apr-2024 09:00Light Rain21°C11 mph, NE98%10000m1020hPa81%
19-Apr-2024 12:00Light Rain21°C11 mph, NE94%10000m1019hPa83%
19-Apr-2024 15:00Light Rain21°C9 mph, NE73%10000m1019hPa81%
19-Apr-2024 18:00Light Rain22°C11 mph, NE66%10000m1020hPa80%
19-Apr-2024 21:00Light Rain22°C11 mph, NE81%9368m1021hPa81%
20-Apr-2024 00:00Light Rain22°C11 mph, NE82%10000m1019hPa79%
20-Apr-2024 03:00Light Rain22°C9 mph, NE90%10000m1019hPa78%
20-Apr-2024 06:00Light Rain22°C9 mph, NE88%10000m1020hPa80%
20-Apr-2024 09:00Light Rain22°C9 mph, E90%9259m1020hPa81%
20-Apr-2024 12:00Light Rain21°C9 mph, E90%7486m1019hPa84%